OB2032 SABE-SAZT

Flight info

Callsign OB2032
Flight time 1h 25m
Altitude 5000
Route DCT GBE W18 KALIM DCT
Aircraft PA34/M-SDG/C

Departure

Time 2026-05-06 23:13
Airport Aeroparque Jorge Newbery (SABE)

Arrival

Time 2026-05-07 00:38
Airport Héroes de Malvinas Airport (SAZT)
Time Latitude Longitude Altitude Speed Heading
2026-05-06 22:18 -34.56281 -58.41208 19 ft 0 kts 32°
2026-05-06 22:51 -34.56280 -58.41207 19 ft 0 kts 32°
2026-05-06 22:58 -34.56281 -58.41208 19 ft 0 kts 32°
2026-05-06 23:02 -34.56274 -58.41225 19 ft 10 kts 246°
2026-05-06 23:02 -34.56270 -58.41309 20 ft 11 kts 258°
2026-05-06 23:02 -34.56238 -58.41390 20 ft 12 kts 303°
2026-05-06 23:03 -34.56190 -58.41475 20 ft 13 kts 320°
2026-05-06 23:03 -34.56116 -58.41442 20 ft 8 kts 34°
2026-05-06 23:03 -34.56114 -58.41440 20 ft 0 kts 34°
2026-05-06 23:05 -34.56113 -58.41439 20 ft 3 kts 34°
2026-05-06 23:06 -34.56045 -58.41385 19 ft 11 kts 30°
2026-05-06 23:06 -34.55994 -58.41347 20 ft 18 kts 37°
2026-05-06 23:06 -34.55971 -58.41327 20 ft 1 kts 30°
2026-05-06 23:08 -34.55951 -58.41312 20 ft 13 kts 29°
2026-05-06 23:08 -34.55863 -58.41354 20 ft 20 kts 295°
2026-05-06 23:09 -34.55822 -58.41529 20 ft 22 kts 280°
2026-05-06 23:09 -34.55755 -58.41689 20 ft 21 kts 302°
2026-05-06 23:09 -34.55683 -58.41840 20 ft 20 kts 305°
2026-05-06 23:09 -34.55631 -58.41932 21 ft 20 kts 304°
2026-05-06 23:10 -34.55525 -58.42112 22 ft 20 kts 308°
2026-05-06 23:10 -34.55437 -58.42253 22 ft 22 kts 306°
2026-05-06 23:10 -34.55361 -58.42393 22 ft 5 kts 284°
2026-05-06 23:10 -34.55361 -58.42394 22 ft 0 kts 284°
2026-05-06 23:11 -34.55360 -58.42430 22 ft 14 kts 255°
2026-05-06 23:11 -34.55471 -58.42377 23 ft 37 kts 121°
2026-05-06 23:12 -34.55717 -58.41924 33 ft 90 kts 122°
2026-05-06 23:12 -34.56116 -58.41231 107 ft 109 kts 122°
2026-05-06 23:12 -34.56532 -58.40567 453 ft 97 kts 130°
2026-05-06 23:12 -34.57024 -58.39947 604 ft 102 kts 128°
2026-05-06 23:13 -34.57496 -58.39381 897 ft 95 kts 140°
2026-05-06 23:13 -34.58135 -58.38989 1163 ft 105 kts 149°
2026-05-06 23:13 -34.58792 -58.38597 1495 ft 109 kts 148°
2026-05-06 23:13 -34.59432 -58.38129 1864 ft 105 kts 145°
2026-05-06 23:14 -34.60070 -58.37625 2135 ft 114 kts 144°
2026-05-06 23:14 -34.60770 -58.37165 2426 ft 115 kts 157°
2026-05-06 23:14 -34.61585 -58.37063 2648 ft 119 kts 189°
2026-05-06 23:14 -34.62353 -58.37303 3002 ft 110 kts 205°
2026-05-06 23:15 -34.63041 -58.37745 3243 ft 112 kts 217°
2026-05-06 23:15 -34.63667 -58.38272 3536 ft 109 kts 225°
2026-05-06 23:15 -34.64240 -58.38876 3816 ft 108 kts 225°
2026-05-06 23:15 -34.64852 -58.39385 4113 ft 108 kts 218°
2026-05-06 23:16 -34.65521 -58.39830 4386 ft 109 kts 214°
2026-05-06 23:16 -34.66212 -58.40211 4656 ft 111 kts 211°
2026-05-06 23:16 -34.66910 -58.40596 4932 ft 108 kts 218°
2026-05-06 23:16 -34.67549 -58.41049 5200 ft 107 kts 221°
2026-05-06 23:17 -34.68182 -58.41524 5478 ft 106 kts 223°
2026-05-06 23:17 -34.68836 -58.41983 5663 ft 115 kts 222°
2026-05-06 23:17 -34.69519 -58.42485 5907 ft 117 kts 219°
2026-05-06 23:17 -34.70293 -58.42878 6012 ft 129 kts 213°
2026-05-06 23:18 -34.71147 -58.43290 5908 ft 133 kts 213°
2026-05-06 23:18 -34.71980 -58.43702 5974 ft 125 kts 215°
2026-05-06 23:18 -34.72803 -58.44135 5899 ft 130 kts 215°
2026-05-06 23:18 -34.73631 -58.44584 5885 ft 130 kts 216°
2026-05-06 23:19 -34.74451 -58.45033 5893 ft 128 kts 216°
2026-05-06 23:19 -34.75266 -58.45478 5887 ft 129 kts 216°
2026-05-06 23:19 -34.76080 -58.45920 5885 ft 128 kts 216°
2026-05-06 23:19 -34.76896 -58.46358 5890 ft 128 kts 216°
2026-05-06 23:20 -34.77710 -58.46796 5889 ft 128 kts 216°
2026-05-06 23:20 -34.78529 -58.47232 5890 ft 129 kts 216°
2026-05-06 23:20 -34.79340 -58.47663 5889 ft 128 kts 216°
2026-05-06 23:20 -34.80156 -58.48101 5888 ft 128 kts 216°
2026-05-06 23:21 -34.80919 -58.48609 5891 ft 123 kts 225°
2026-05-06 23:21 -34.81654 -58.49169 5895 ft 124 kts 224°
2026-05-06 23:21 -34.82386 -58.49732 5894 ft 124 kts 224°
2026-05-06 23:21 -34.83114 -58.50295 5891 ft 124 kts 224°
2026-05-06 23:22 -34.83844 -58.50856 5897 ft 124 kts 224°
2026-05-06 23:22 -34.84580 -58.51417 5899 ft 125 kts 224°
2026-05-06 23:22 -34.85395 -58.51857 5890 ft 132 kts 208°
2026-05-06 23:22 -34.86273 -58.52189 5883 ft 134 kts 204°
2026-05-06 23:23 -34.87214 -58.52330 5891 ft 136 kts 198°
2026-05-06 23:23 -34.88156 -58.52472 5892 ft 137 kts 198°
2026-05-06 23:23 -34.89133 -58.52436 5889 ft 143 kts 185°
2026-05-06 23:23 -34.90119 -58.52339 5889 ft 142 kts 186°
2026-05-06 23:24 -34.91108 -58.52262 5893 ft 142 kts 187°
2026-05-06 23:24 -34.92087 -58.52194 5897 ft 143 kts 187°
2026-05-06 23:24 -34.93082 -58.52125 5897 ft 143 kts 187°
2026-05-06 23:24 -34.94077 -58.52057 5901 ft 143 kts 187°
2026-05-06 23:25 -34.95071 -58.51989 5903 ft 143 kts 187°
2026-05-06 23:25 -34.96068 -58.51921 5909 ft 143 kts 187°
2026-05-06 23:25 -34.97062 -58.51853 5909 ft 143 kts 187°
2026-05-06 23:25 -34.98054 -58.51785 5908 ft 142 kts 187°
2026-05-06 23:26 -34.99041 -58.51717 5907 ft 142 kts 187°
2026-05-06 23:26 -35.00031 -58.51650 5907 ft 142 kts 187°
2026-05-06 23:26 -35.01019 -58.51583 5907 ft 142 kts 187°
2026-05-06 23:26 -35.01993 -58.51516 5908 ft 142 kts 187°
2026-05-06 23:27 -35.02980 -58.51449 5914 ft 142 kts 187°
2026-05-06 23:27 -35.03965 -58.51381 5913 ft 142 kts 187°
2026-05-06 23:27 -35.04951 -58.51314 5914 ft 142 kts 187°
2026-05-06 23:27 -35.05937 -58.51246 5918 ft 142 kts 187°
2026-05-06 23:28 -35.06920 -58.51179 5913 ft 142 kts 187°
2026-05-06 23:28 -35.07906 -58.51112 5911 ft 142 kts 186°
2026-05-06 23:28 -35.08891 -58.51045 5911 ft 142 kts 186°
2026-05-06 23:28 -35.09877 -58.50976 5913 ft 141 kts 186°
2026-05-06 23:29 -35.10858 -58.50909 5916 ft 141 kts 186°
2026-05-06 23:29 -35.11842 -58.50843 5922 ft 142 kts 186°
2026-05-06 23:29 -35.12827 -58.50775 5916 ft 142 kts 186°
2026-05-06 23:29 -35.13812 -58.50707 5918 ft 142 kts 186°
2026-05-06 23:30 -35.14795 -58.50640 5911 ft 142 kts 186°
2026-05-06 23:30 -35.15780 -58.50572 5917 ft 142 kts 186°
2026-05-06 23:30 -35.16767 -58.50505 5919 ft 142 kts 186°
2026-05-06 23:30 -35.17753 -58.50437 5917 ft 142 kts 186°
2026-05-06 23:31 -35.18745 -58.50369 5918 ft 143 kts 186°
2026-05-06 23:31 -35.19741 -58.50301 5921 ft 143 kts 186°
2026-05-06 23:31 -35.20724 -58.50233 5918 ft 143 kts 186°
2026-05-06 23:31 -35.21720 -58.50165 5920 ft 143 kts 186°
2026-05-06 23:32 -35.22716 -58.50096 5918 ft 144 kts 186°
2026-05-06 23:32 -35.23718 -58.50028 5919 ft 144 kts 186°
2026-05-06 23:32 -35.24720 -58.49959 5919 ft 144 kts 186°
2026-05-06 23:32 -35.25719 -58.49890 5918 ft 144 kts 186°
2026-05-06 23:33 -35.26719 -58.49821 5919 ft 144 kts 186°
2026-05-06 23:33 -35.27722 -58.49752 5919 ft 144 kts 186°
2026-05-06 23:33 -35.28723 -58.49683 5917 ft 144 kts 186°
2026-05-06 23:33 -35.29725 -58.49614 5918 ft 144 kts 186°
2026-05-06 23:34 -35.30728 -58.49545 5920 ft 144 kts 186°
2026-05-06 23:34 -35.31710 -58.49477 5919 ft 144 kts 186°
2026-05-06 23:34 -35.32709 -58.49409 5916 ft 143 kts 186°
2026-05-06 23:34 -35.33701 -58.49340 5919 ft 143 kts 186°
2026-05-06 23:35 -35.34358 -58.49295 5915 ft 142 kts 186°
2026-05-06 23:35 -35.35681 -58.49204 5921 ft 142 kts 186°
2026-05-06 23:35 -35.36667 -58.49136 5922 ft 142 kts 186°
2026-05-06 23:35 -35.37653 -58.49068 5921 ft 142 kts 186°
2026-05-06 23:36 -35.38638 -58.49000 5921 ft 142 kts 186°
2026-05-06 23:36 -35.39628 -58.48932 5926 ft 142 kts 186°
2026-05-06 23:36 -35.40613 -58.48864 5924 ft 142 kts 186°
2026-05-06 23:36 -35.41600 -58.48796 5924 ft 142 kts 186°
2026-05-06 23:37 -35.42253 -58.48750 5925 ft 142 kts 186°
2026-05-06 23:37 -35.43581 -58.48659 5921 ft 143 kts 186°
2026-05-06 23:37 -35.44561 -58.48591 5922 ft 143 kts 186°
2026-05-06 23:37 -35.45554 -58.48522 5926 ft 143 kts 186°
2026-05-06 23:38 -35.46548 -58.48454 5928 ft 143 kts 187°
2026-05-06 23:38 -35.47544 -58.48385 5928 ft 143 kts 187°
2026-05-06 23:38 -35.48539 -58.48316 5922 ft 143 kts 187°
2026-05-06 23:38 -35.49539 -58.48248 5926 ft 143 kts 187°
2026-05-06 23:39 -35.50538 -58.48178 5928 ft 144 kts 187°
2026-05-06 23:39 -35.51544 -58.48109 5932 ft 145 kts 187°
2026-05-06 23:39 -35.52553 -58.48039 5932 ft 145 kts 187°
2026-05-06 23:39 -35.53561 -58.47969 5934 ft 145 kts 187°
2026-05-06 23:40 -35.54569 -58.47899 5928 ft 146 kts 187°
2026-05-06 23:40 -35.55569 -58.47830 5932 ft 146 kts 187°
2026-05-06 23:40 -35.56582 -58.47760 5933 ft 145 kts 187°
2026-05-06 23:40 -35.57591 -58.47690 5934 ft 145 kts 187°
2026-05-06 23:41 -35.58598 -58.47620 5933 ft 146 kts 187°
2026-05-06 23:41 -35.59610 -58.47550 5933 ft 146 kts 187°
2026-05-06 23:41 -35.60282 -58.47504 5935 ft 146 kts 187°
2026-05-06 23:41 -35.61638 -58.47409 5939 ft 146 kts 187°
2026-05-06 23:42 -35.62650 -58.47339 5938 ft 146 kts 187°
2026-05-06 23:42 -35.63323 -58.47293 5940 ft 146 kts 187°
2026-05-06 23:42 -35.64336 -58.47222 5938 ft 145 kts 187°
2026-05-06 23:42 -35.65345 -58.47151 5937 ft 145 kts 187°
2026-05-06 23:43 -35.66346 -58.47082 5939 ft 144 kts 187°
2026-05-06 23:43 -35.67347 -58.47013 5939 ft 143 kts 187°
2026-05-06 23:43 -35.68343 -58.46944 5943 ft 143 kts 187°
2026-05-06 23:43 -35.69265 -58.47125 5925 ft 127 kts 218°
2026-05-06 23:44 -35.70052 -58.47610 5928 ft 127 kts 219°
2026-05-06 23:44 -35.70853 -58.48082 5938 ft 129 kts 217°
2026-05-06 23:44 -35.71682 -58.48516 5937 ft 130 kts 215°
2026-05-06 23:44 -35.72509 -58.48925 5945 ft 130 kts 214°
2026-05-06 23:45 -35.73356 -58.49336 5946 ft 131 kts 214°
2026-05-06 23:45 -35.74207 -58.49747 5951 ft 131 kts 214°
2026-05-06 23:45 -35.75059 -58.50155 5951 ft 131 kts 214°
2026-05-06 23:45 -35.75913 -58.50566 5948 ft 132 kts 214°
2026-05-06 23:46 -35.76769 -58.50977 5949 ft 132 kts 214°
2026-05-06 23:46 -35.77629 -58.51390 5953 ft 133 kts 214°
2026-05-06 23:46 -35.78493 -58.51805 5954 ft 133 kts 214°
2026-05-06 23:46 -35.79354 -58.52218 5954 ft 133 kts 214°
2026-05-06 23:47 -35.80213 -58.52631 5953 ft 133 kts 214°
2026-05-06 23:47 -35.81074 -58.53045 5955 ft 133 kts 214°
2026-05-06 23:47 -35.81936 -58.53459 5956 ft 133 kts 215°
2026-05-06 23:47 -35.82794 -58.53872 5958 ft 133 kts 214°
2026-05-06 23:48 -35.83643 -58.54281 5957 ft 133 kts 214°
2026-05-06 23:48 -35.84510 -58.54698 5960 ft 134 kts 214°
2026-05-06 23:48 -35.85378 -58.55116 5963 ft 134 kts 214°
2026-05-06 23:48 -35.86249 -58.55535 5960 ft 134 kts 215°
2026-05-06 23:49 -35.87117 -58.55953 5962 ft 134 kts 215°
2026-05-06 23:49 -35.87989 -58.56374 5961 ft 135 kts 215°
2026-05-06 23:49 -35.88862 -58.56793 5960 ft 134 kts 215°
2026-05-06 23:49 -35.89731 -58.57211 5961 ft 134 kts 215°
2026-05-06 23:50 -35.90597 -58.57629 5966 ft 133 kts 215°
2026-05-06 23:50 -35.92325 -58.58463 5966 ft 133 kts 216°
2026-05-06 23:50 -35.93190 -58.58880 5965 ft 133 kts 216°
2026-05-06 23:51 -35.94051 -58.59295 5970 ft 133 kts 216°
2026-05-06 23:51 -35.94918 -58.59714 5969 ft 134 kts 216°
2026-05-06 23:51 -35.95778 -58.60129 5968 ft 135 kts 216°
2026-05-06 23:51 -35.96650 -58.60551 5965 ft 135 kts 216°
2026-05-06 23:52 -35.97522 -58.60971 5973 ft 134 kts 216°
2026-05-06 23:52 -35.98391 -58.61390 5969 ft 134 kts 216°
2026-05-06 23:52 -35.99256 -58.61808 5966 ft 133 kts 216°
2026-05-06 23:52 -36.00116 -58.62223 5970 ft 132 kts 216°
2026-05-06 23:53 -36.00973 -58.62638 5970 ft 132 kts 216°
2026-05-06 23:53 -36.01829 -58.63053 5971 ft 132 kts 217°
2026-05-06 23:53 -36.02688 -58.63468 5969 ft 132 kts 216°
2026-05-06 23:53 -36.03545 -58.63882 5961 ft 132 kts 216°
2026-05-06 23:54 -36.04406 -58.64299 5973 ft 133 kts 216°
2026-05-06 23:54 -36.05272 -58.64720 5963 ft 134 kts 216°
2026-05-06 23:54 -36.06145 -58.65142 5967 ft 135 kts 216°
2026-05-06 23:54 -36.07024 -58.65566 5957 ft 136 kts 216°
2026-05-06 23:55 -36.07905 -58.65993 5969 ft 136 kts 216°
2026-05-06 23:55 -36.08782 -58.66417 5962 ft 135 kts 217°
2026-05-06 23:55 -36.09653 -58.66838 5966 ft 134 kts 217°
2026-05-06 23:55 -36.10519 -58.67259 5967 ft 134 kts 217°
2026-05-06 23:56 -36.11386 -58.67679 5971 ft 133 kts 217°
2026-05-06 23:56 -36.12235 -58.68091 5966 ft 132 kts 217°
2026-05-06 23:56 -36.13090 -58.68504 5966 ft 131 kts 218°
2026-05-06 23:56 -36.13937 -58.68916 5965 ft 131 kts 218°
2026-05-06 23:57 -36.14787 -58.69329 5971 ft 131 kts 217°
2026-05-06 23:57 -36.15638 -58.69743 5962 ft 131 kts 217°
2026-05-06 23:57 -36.16488 -58.70155 5963 ft 131 kts 217°
2026-05-06 23:57 -36.17342 -58.70570 5959 ft 133 kts 217°
2026-05-06 23:58 -36.18205 -58.70990 5968 ft 133 kts 217°
2026-05-06 23:58 -36.19071 -58.71410 5967 ft 134 kts 218°
2026-05-06 23:58 -36.19939 -58.71831 5966 ft 133 kts 218°
2026-05-06 23:58 -36.20800 -58.72249 5966 ft 133 kts 218°
2026-05-06 23:59 -36.21658 -58.72665 5964 ft 132 kts 219°
2026-05-06 23:59 -36.22511 -58.73081 5965 ft 132 kts 218°
2026-05-06 23:59 -36.23369 -58.73498 5964 ft 132 kts 219°
2026-05-06 23:59 -36.24223 -58.73914 5967 ft 132 kts 219°
2026-05-07 00:00 -36.25065 -58.74323 5966 ft 132 kts 219°
2026-05-07 00:00 -36.25928 -58.74743 5969 ft 131 kts 219°
2026-05-07 00:00 -36.26765 -58.75150 5964 ft 131 kts 219°
2026-05-07 00:00 -36.27609 -58.75562 5963 ft 130 kts 218°
2026-05-07 00:01 -36.28455 -58.75974 5968 ft 131 kts 219°
2026-05-07 00:01 -36.29306 -58.76390 5959 ft 132 kts 219°
2026-05-07 00:01 -36.30159 -58.76805 5958 ft 132 kts 218°
2026-05-07 00:01 -36.31012 -58.77221 5961 ft 132 kts 218°
2026-05-07 00:02 -36.31867 -58.77638 5967 ft 132 kts 218°
2026-05-07 00:02 -36.32726 -58.78056 5961 ft 133 kts 218°
2026-05-07 00:02 -36.33584 -58.78475 5957 ft 133 kts 218°
2026-05-07 00:02 -36.34443 -58.78894 5961 ft 133 kts 218°
2026-05-07 00:03 -36.35292 -58.79308 5965 ft 132 kts 217°
2026-05-07 00:03 -36.36154 -58.79729 5958 ft 133 kts 218°
2026-05-07 00:03 -36.37012 -58.80152 5963 ft 132 kts 218°
2026-05-07 00:03 -36.37867 -58.80576 5962 ft 132 kts 218°
2026-05-07 00:04 -36.38707 -58.81001 5953 ft 126 kts 223°
2026-05-07 00:04 -36.39088 -58.81747 5949 ft 96 kts 270°
2026-05-07 00:04 -36.39250 -58.82560 5950 ft 98 kts 267°
2026-05-07 00:04 -36.39416 -58.83370 5993 ft 95 kts 268°
2026-05-07 00:05 -36.39582 -58.84172 6004 ft 96 kts 267°
2026-05-07 00:05 -36.39703 -58.84986 6007 ft 96 kts 271°
2026-05-07 00:05 -36.39818 -58.85803 6012 ft 96 kts 270°
2026-05-07 00:05 -36.39934 -58.86628 6007 ft 98 kts 270°
2026-05-07 00:06 -36.40049 -58.87466 6011 ft 99 kts 270°
2026-05-07 00:06 -36.40161 -58.88309 6007 ft 101 kts 270°
2026-05-07 00:06 -36.40272 -58.89173 6014 ft 102 kts 270°
2026-05-07 00:06 -36.40378 -58.90048 6008 ft 102 kts 271°
2026-05-07 00:07 -36.40452 -58.90922 6010 ft 101 kts 272°
2026-05-07 00:07 -36.40521 -58.91786 6007 ft 100 kts 272°
2026-05-07 00:07 -36.40588 -58.92644 6009 ft 100 kts 273°
2026-05-07 00:07 -36.40658 -58.93502 6007 ft 100 kts 272°
2026-05-07 00:08 -36.40730 -58.94357 6008 ft 100 kts 272°
2026-05-07 00:08 -36.40801 -58.95218 6011 ft 100 kts 272°
2026-05-07 00:08 -36.40868 -58.96081 6009 ft 101 kts 272°
2026-05-07 00:08 -36.40928 -58.96948 6010 ft 101 kts 272°
2026-05-07 00:09 -36.40986 -58.97817 6008 ft 101 kts 272°
2026-05-07 00:09 -36.41042 -58.98688 6010 ft 101 kts 273°
2026-05-07 00:09 -36.41083 -58.99573 6012 ft 105 kts 274°
2026-05-07 00:09 -36.41123 -59.00491 6012 ft 108 kts 274°
2026-05-07 00:10 -36.41196 -59.01436 6011 ft 111 kts 269°
2026-05-07 00:10 -36.41313 -59.02375 6011 ft 112 kts 269°
2026-05-07 00:10 -36.41533 -59.03319 6000 ft 118 kts 255°
2026-05-07 00:10 -36.41900 -59.04235 6003 ft 118 kts 255°
2026-05-07 00:11 -36.42259 -59.05154 6007 ft 118 kts 255°
2026-05-07 00:11 -36.42616 -59.06073 6009 ft 118 kts 255°
2026-05-07 00:11 -36.42971 -59.06992 6011 ft 119 kts 255°
2026-05-07 00:11 -36.43326 -59.07928 6009 ft 120 kts 255°
2026-05-07 00:12 -36.43681 -59.08870 6014 ft 121 kts 255°
2026-05-07 00:12 -36.44036 -59.09816 6010 ft 121 kts 255°
2026-05-07 00:12 -36.44392 -59.10763 6012 ft 121 kts 255°
2026-05-07 00:12 -36.44783 -59.11691 5996 ft 126 kts 243°
2026-05-07 00:13 -36.45580 -59.12284 5997 ft 138 kts 217°
2026-05-07 00:13 -36.46440 -59.12798 5999 ft 137 kts 219°
2026-05-07 00:13 -36.47300 -59.13315 6004 ft 138 kts 219°
2026-05-07 00:13 -36.48155 -59.13828 6005 ft 138 kts 219°
2026-05-07 00:14 -36.49068 -59.14264 5997 ft 146 kts 206°
2026-05-07 00:14 -36.50089 -59.14491 6001 ft 148 kts 201°
2026-05-07 00:14 -36.51113 -59.14679 6003 ft 149 kts 201°
2026-05-07 00:14 -36.52127 -59.14863 6003 ft 149 kts 201°
2026-05-07 00:15 -36.53151 -59.15049 6004 ft 149 kts 201°
2026-05-07 00:15 -36.54181 -59.15222 5997 ft 151 kts 197°
2026-05-07 00:15 -36.55257 -59.15126 5996 ft 157 kts 185°
2026-05-07 00:15 -36.56325 -59.15094 5989 ft 151 kts 194°
2026-05-07 00:16 -36.57355 -59.15042 5992 ft 155 kts 184°
2026-05-07 00:16 -36.58422 -59.14882 5994 ft 155 kts 185°
2026-05-07 00:16 -36.59492 -59.14729 5992 ft 155 kts 185°
2026-05-07 00:16 -36.60562 -59.14577 5994 ft 155 kts 185°
2026-05-07 00:17 -36.61629 -59.14425 5995 ft 154 kts 185°
2026-05-07 00:17 -36.62698 -59.14276 5997 ft 154 kts 185°
2026-05-07 00:17 -36.63750 -59.14130 5995 ft 154 kts 185°
2026-05-07 00:17 -36.64818 -59.13983 5995 ft 154 kts 185°
2026-05-07 00:18 -36.65883 -59.13836 5999 ft 154 kts 185°
2026-05-07 00:18 -36.66949 -59.13695 5997 ft 153 kts 185°
2026-05-07 00:18 -36.67996 -59.13690 5996 ft 150 kts 193°
2026-05-07 00:18 -36.69044 -59.13707 5957 ft 154 kts 189°
2026-05-07 00:19 -36.70090 -59.13869 5830 ft 150 kts 207°
2026-05-07 00:19 -36.71100 -59.14247 5707 ft 152 kts 206°
2026-05-07 00:19 -36.72113 -59.14628 5588 ft 149 kts 207°
2026-05-07 00:19 -36.73080 -59.14989 5473 ft 141 kts 207°
2026-05-07 00:20 -36.74000 -59.15343 5398 ft 136 kts 208°
2026-05-07 00:20 -36.74896 -59.15685 5320 ft 134 kts 208°
2026-05-07 00:20 -36.75779 -59.16023 5242 ft 132 kts 208°
2026-05-07 00:20 -36.76652 -59.16354 5163 ft 131 kts 207°
2026-05-07 00:21 -36.77516 -59.16689 5080 ft 128 kts 208°
2026-05-07 00:21 -36.78338 -59.17029 4998 ft 124 kts 211°
2026-05-07 00:21 -36.79135 -59.17448 4921 ft 122 kts 213°
2026-05-07 00:21 -36.79904 -59.17851 4848 ft 121 kts 213°
2026-05-07 00:22 -36.80708 -59.18201 4765 ft 125 kts 201°
2026-05-07 00:22 -36.81561 -59.18419 4694 ft 124 kts 202°
2026-05-07 00:22 -36.82409 -59.18660 4622 ft 125 kts 202°
2026-05-07 00:22 -36.83261 -59.18905 4549 ft 126 kts 202°
2026-05-07 00:23 -36.84114 -59.19156 4478 ft 126 kts 202°
2026-05-07 00:23 -36.84965 -59.19411 4405 ft 126 kts 202°
2026-05-07 00:23 -36.85850 -59.19467 4307 ft 134 kts 176°
2026-05-07 00:23 -36.86766 -59.19248 4235 ft 133 kts 178°
2026-05-07 00:24 -36.87683 -59.19057 4159 ft 134 kts 178°
2026-05-07 00:24 -36.88604 -59.18876 4084 ft 134 kts 178°
2026-05-07 00:24 -36.89509 -59.18809 4006 ft 131 kts 188°
2026-05-07 00:24 -36.90405 -59.18931 3931 ft 129 kts 195°
2026-05-07 00:25 -36.91297 -59.19088 3858 ft 130 kts 195°
2026-05-07 00:25 -36.92197 -59.19251 3785 ft 131 kts 195°
2026-05-07 00:25 -36.93102 -59.19416 3710 ft 135 kts 195°
2026-05-07 00:25 -36.94073 -59.19606 3648 ft 146 kts 195°
2026-05-07 00:26 -36.95096 -59.19815 3581 ft 152 kts 191°
2026-05-07 00:26 -36.96167 -59.19839 3514 ft 155 kts 186°
2026-05-07 00:26 -36.97245 -59.19921 3442 ft 155 kts 191°
2026-05-07 00:26 -36.98321 -59.20066 3373 ft 156 kts 193°
2026-05-07 00:27 -36.99403 -59.20259 3249 ft 159 kts 194°
2026-05-07 00:27 -37.00486 -59.20508 3076 ft 156 kts 196°
2026-05-07 00:27 -37.01552 -59.20711 2905 ft 155 kts 188°
2026-05-07 00:27 -37.01785 -59.20720 2865 ft 156 kts 186°
2026-05-07 00:31 -37.02797 -59.20705 2707 ft 155 kts 184°
2026-05-07 00:31 -37.03874 -59.20692 2517 ft 154 kts 184°
2026-05-07 00:32 -37.04933 -59.20766 2351 ft 152 kts 190°
2026-05-07 00:32 -37.05988 -59.20895 2176 ft 152 kts 190°
2026-05-07 00:32 -37.07035 -59.21072 1998 ft 151 kts 195°
2026-05-07 00:32 -37.08018 -59.21302 2000 ft 142 kts 195°
2026-05-07 00:33 -37.08972 -59.21522 1997 ft 132 kts 195°
2026-05-07 00:33 -37.09839 -59.21718 1998 ft 125 kts 195°
2026-05-07 00:33 -37.10693 -59.21803 1994 ft 124 kts 179°
2026-05-07 00:33 -37.11538 -59.21661 1995 ft 120 kts 182°
2026-05-07 00:34 -37.12362 -59.21703 1994 ft 118 kts 190°
2026-05-07 00:34 -37.13176 -59.21797 1995 ft 118 kts 192°
2026-05-07 00:34 -37.13989 -59.21897 1911 ft 118 kts 192°
2026-05-07 00:34 -37.14791 -59.22078 1768 ft 117 kts 197°
2026-05-07 00:35 -37.15586 -59.22129 1323 ft 113 kts 182°
2026-05-07 00:35 -37.16186 -59.22257 1340 ft 74 kts 208°
2026-05-07 00:35 -37.16790 -59.22371 1274 ft 97 kts 193°
2026-05-07 00:35 -37.17521 -59.22505 1092 ft 113 kts 185°
2026-05-07 00:36 -37.18223 -59.22594 913 ft 95 kts 180°
2026-05-07 00:36 -37.18823 -59.22594 830 ft 88 kts 180°
2026-05-07 00:36 -37.19437 -59.22606 892 ft 95 kts 177°
2026-05-07 00:36 -37.20093 -59.22528 878 ft 97 kts 173°
2026-05-07 00:37 -37.20683 -59.22533 702 ft 76 kts 178°
2026-05-07 00:37 -37.21238 -59.22618 633 ft 87 kts 190°
2026-05-07 00:37 -37.21850 -59.22695 655 ft 93 kts 183°
2026-05-07 00:37 -37.22502 -59.22763 570 ft 85 kts 177°
2026-05-07 00:38 -37.22981 -59.22810 560 ft 56 kts 181°
2026-05-07 00:38 -37.23288 -59.22844 570 ft 33 kts 182°
2026-05-07 00:38 -37.23502 -59.22865 566 ft 29 kts 187°
2026-05-07 00:38 -37.23700 -59.22888 572 ft 29 kts 186°
2026-05-07 00:39 -37.23906 -59.22911 569 ft 30 kts 185°
2026-05-07 00:39 -37.24099 -59.22934 573 ft 27 kts 185°
2026-05-07 00:39 -37.24257 -59.22967 573 ft 16 kts 240°
2026-05-07 00:39 -37.24182 -59.23021 573 ft 24 kts 319°
2026-05-07 00:40 -37.24085 -59.23126 575 ft 27 kts 304°
2026-05-07 00:40 -37.23966 -59.23271 571 ft 21 kts 320°
2026-05-07 00:40 -37.23871 -59.23389 570 ft 21 kts 330°
2026-05-07 00:40 -37.23791 -59.23523 569 ft 15 kts 205°
2026-05-07 00:41 -37.23875 -59.23577 573 ft 16 kts 232°
2026-05-07 00:41 -37.23963 -59.23678 572 ft 19 kts 211°
2026-05-07 00:41 -37.23991 -59.23698 572 ft 0 kts 219°